TimeCST,TemperatureF,Dew PointF,Humidity,Sea Level PressureIn,VisibilityMPH,Wind Direction,Wind SpeedMPH,Gust SpeedMPH,PrecipitationIn,Events,Conditions,WindDirDegrees,DateUTC
12:56 AM,8.1,4.1,84,30.40,10.0,Calm,Calm,-,N/A,,Clear,0,2012-11-27 06:56:00
1:56 AM,7.2,3.0,83,30.40,10.0,Calm,Calm,-,N/A,,Clear,0,2012-11-27 07:56:00
2:56 AM,7.2,3.0,83,30.40,10.0,Calm,Calm,-,N/A,,Clear,0,2012-11-27 08:56:00
3:56 AM,6.1,3.0,87,30.38,10.0,Calm,Calm,-,N/A,,Clear,0,2012-11-27 09:56:00
4:56 AM,7.2,3.0,83,30.38,10.0,Calm,Calm,-,N/A,,Clear,0,2012-11-27 10:56:00
5:56 AM,8.1,4.1,84,30.38,10.0,Calm,Calm,-,N/A,,Clear,0,2012-11-27 11:56:00
6:56 AM,8.1,4.1,84,30.38,10.0,Calm,Calm,-,N/A,,Clear,0,2012-11-27 12:56:00
7:56 AM,10.0,6.1,84,30.38,10.0,Calm,Calm,-,N/A,,Clear,0,2012-11-27 13:56:00
8:56 AM,16.2,9.1,74,30.37,10.0,SW,6.9,-,N/A,,Clear,230,2012-11-27 14:56:00
9:56 AM,21.0,11.1,66,30.37,10.0,SW,8.1,-,N/A,,Clear,220,2012-11-27 15:56:00
11:56 AM,30.0,9.1,42,30.30,10.0,SW,13.8,-,N/A,,Clear,220,2012-11-27 17:56:00
12:56 PM,30.0,10.0,43,30.27,10.0,SSW,9.2,-,N/A,,Clear,210,2012-11-27 18:56:00
1:56 PM,32.0,10.0,40,30.24,10.0,SSW,10.4,-,N/A,,Clear,210,2012-11-27 19:56:00
2:56 PM,31.1,9.1,40,30.23,10.0,SSW,10.4,-,N/A,,Clear,210,2012-11-27 20:56:00
3:56 PM,29.1,10.0,45,30.21,10.0,South,9.2,-,N/A,,Overcast,190,2012-11-27 21:56:00
4:56 PM,29.1,11.1,47,30.21,10.0,SSW,6.9,-,N/A,,Overcast,210,2012-11-27 22:56:00
5:56 PM,29.1,11.1,47,30.20,10.0,SSW,6.9,-,N/A,,Overcast,200,2012-11-27 23:56:00
6:56 PM,28.0,11.1,49,30.19,10.0,SSW,8.1,-,N/A,,Overcast,210,2012-11-28 00:56:00
7:56 PM,29.1,12.0,49,30.20,10.0,WSW,8.1,-,N/A,,Overcast,240,2012-11-28 01:56:00
8:56 PM,29.1,12.0,49,30.20,10.0,SW,9.2,-,N/A,,Overcast,230,2012-11-28 02:56:00
9:56 PM,28.0,12.0,51,30.20,10.0,SW,4.6,-,N/A,,Mostly Cloudy,230,2012-11-28 03:56:00
10:56 PM,28.0,13.1,54,30.19,10.0,WSW,6.9,-,N/A,,Overcast,240,2012-11-28 04:56:00
11:56 PM,26.1,13.1,58,30.20,10.0,WSW,4.6,-,N/A,,Overcast,240,2012-11-28 05:56:00